Wind_Speed
91 97 102 109 112 111 110 108 106 102 103 98 95 95 96 91 85 82 80 75 72 74 77 73 69 69 69 62 57 54 49 47 47 42 46 46 47 43 47 42 36 36 37 34 33
78 81 89 101 106 113 114 114 112 110 106 108 101 102 97 98 93 84 82 81 76 72 73 74 70 71 69 69 64 60 56 54 48 44 48 44 47 50 47 46 43 44 41 38 33
76 84 85 87 101 108 115 119 119 118 114 112 112 106 105 98 98 80 89 88 82 78 77 75 74 69 66 70 66 62 61 61 53 49 48 52 55 48 51 47 45 48 44 41 34
74 76 84 90 94 98 111 114 120 123 117 116 116 114 113 106 100 96 91 90 88 85 80 74 70 69 70 67 70 62 67 67 62 61 61 62 58 55 50 49 48 46 44 43 36
76 78 84 90 95 98 100 108 117 121 123 118 119 120 117 117 105 98 98 97 94 89 85 82 78 72 69 73 71 66 68 70 71 62 63 61 57 56 51 55 49 45 41 42 41
76 80 84 89 94 104 103 100 106 118 124 123 122 123 124 120 112 115 104 103 101 97 88 87 84 76 74 76 71 71 73 68 66 65 65 61 58 54 57 56 54 48 47 45 45
75 76 81 88 93 97 106 105 101 107 117 124 128 130 128 115 120 114 110 104 102 97 96 92 86 89 83 77 73 76 73 73 66 63 65 65 59 54 65 56 57 50 48 45 45
69 72 77 81 87 93 100 109 106 103 105 117 125 132 129 120 120 118 115 111 110 103 99 99 97 90 82 80 81 79 79 70 67 68 64 61 53 59 66 60 58 56 51 47 44
65 66 70 73 77 87 95 102 109 108 104 108 117 126 124 122 123 118 117 118 113 114 107 104 100 93 96 90 85 77 71 73 79 76 76 70 65 72 70 63 61 59 51 47 46
63 60 63 70 74 79 89 99 103 108 110 106 106 112 121 121 125 119 118 119 120 115 119 113 105 102 99 92 80 75 71 77 77 80 81 75 66 75 75 68 61 59 51 46 49
63 61 60 66 69 71 79 91 102 106 107 108 106 104 112 126 123 122 116 113 120 126 120 111 118 112 91 84 78 81 85 80 80 80 85 74 76 75 75 68 62 59 56 47 48
66 61 57 60 64 65 68 79 89 97 103 108 107 99 110 120 121 122 123 116 112 115 119 127 125 104 94 96 93 92 93 86 84 84 83 78 76 77 76 66 66 63 58 49 49
65 60 55 56 61 60 62 67 78 88 94 105 108 102 112 114 112 117 124 124 120 115 114 121 110 106 106 101 103 106 96 87 89 91 89 88 84 81 76 72 69 67 59 54 51
65 58 52 52 55 57 58 59 66 79 81 98 101 104 106 113 107 115 124 126 127 118 111 114 102 116 115 113 111 107 97 101 96 99 94 97 88 87 75 74 71 65 59 55 53
60 54 49 47 52 53 56 57 61 66 69 85 93 100 108 107 111 121 126 128 127 121 114 110 101 105 117 112 109 105 101 103 106 106 102 102 90 74 77 78 64 61 61 56 55
55 50 45 44 48 49 50 54 57 61 68 81 89 96 110 112 116 122 126 126 130 127 125 117 105 104 98 95 106 104 108 107 105 108 111 91 92 74 78 67 67 66 63 60 59
52 47 40 43 44 43 46 50 54 58 70 76 83 95 106 118 122 124 127 127 127 132 130 125 116 110 107 100 102 100 101 105 108 111 103 81 102 76 68 72 69 66 65 63 64
49 44 36 40 41 41 43 46 51 60 65 71 80 90 97 111 124 128 125 126 124 124 130 127 121 114 111 109 102 100 104 108 103 102 92 95 98 66 68 66 71 72 69 67 67
47 41 35 37 40 39 41 45 50 53 56 66 77 84 93 104 118 127 125 125 128 126 125 127 125 118 114 105 105 103 108 98 98 98 99 98 90 70 74 71 68 70 71 71 72
45 39 34 36 38 37 40 41 43 47 49 59 70 81 92 105 117 127 127 127 133 134 132 125 124 120 114 108 108 108 101 102 102 103 103 91 84 75 72 71 71 71 71 74 74
44 39 35 35 37 36 37 38 39 43 47 53 62 72 84 100 112 124 129 128 138 132 127 129 126 120 117 114 108 107 106 106 103 104 99 91 87 72 75 71 70 67 71 74 74
43 39 36 35 35 35 35 37 36 40 44 49 56 65 77 90 107 114 126 129 134 142 136 128 127 122 116 112 113 108 105 109 108 104 99 94 88 84 76 75 71 66 69 67 67
42 43 34 35 34 33 36 36 35 37 40 45 52 59 69 82 95 112 124 130 132 134 139 136 127 119 119 118 113 112 110 111 108 106 102 99 80 81 78 77 74 71 73 67 68
40 42 39 32 31 34 35 38 33 34 37 41 49 55 63 76 88 104 120 128 131 132 138 140 136 128 123 124 119 119 116 115 111 109 108 107 82 90 86 83 77 71 73 71 70
40 40 39 36 28 34 33 38 34 32 34 37 46 54 60 68 82 99 112 122 130 134 137 142 141 133 127 123 122 123 121 119 115 111 103 85 82 91 94 92 86 78 75 73 73
39 37 39 38 33 30 30 32 37 30 30 35 41 52 60 65 77 93 106 115 126 132 136 141 142 138 130 120 121 123 117 115 116 116 107 96 91 91 93 86 81 81 82 78 76
39 37 36 42 35 27 27 30 35 31 30 33 39 48 54 63 72 85 96 106 114 126 134 138 142 142 140 138 135 128 116 118 116 113 104 102 96 96 97 92 83 79 76 79 74
Wind_Direction
254 250 250 247 246 243 240 241 241 239 237 241 241 242 241 243 242 244 245 242 238 245 244 245 245 246 247 247 248 256 261 257 263 267 266 266 274 280 286 286 298 303 302 295 296
259 258 253 248 249 243 240 238 238 238 239 237 239 238 240 242 241 239 243 241 237 241 245 243 243 245 248 246 249 251 260 260 261 263 262 268 269 282 284 284 288 300 298 295 290
255 254 255 253 249 245 242 240 237 238 237 239 237 238 237 238 238 240 238 241 240 243 243 244 245 246 248 247 251 252 247 250 249 246 252 261 268 276 282 286 291 298 298 295 291
262 257 249 250 250 247 243 241 238 237 236 236 237 237 238 236 235 237 240 241 238 238 240 241 242 244 246 246 247 245 247 244 242 245 251 256 264 272 281 282 286 295 293 290 295
267 261 257 249 246 248 245 241 239 237 238 235 235 236 238 237 235 236 238 240 238 236 238 239 238 240 240 244 241 241 244 247 245 242 254 257 263 270 277 279 282 290 290 285 289
272 264 259 253 249 246 248 245 240 238 237 237 233 234 236 237 236 236 234 238 239 236 237 239 238 236 240 242 242 244 244 246 249 249 254 256 263 268 270 271 277 285 287 288 289
278 270 261 255 251 247 245 247 243 238 236 235 235 234 234 236 238 238 235 237 241 242 237 236 237 241 242 242 239 242 245 248 252 253 255 256 262 261 263 265 270 278 285 287 285
281 272 266 258 252 247 245 243 245 242 237 235 234 234 233 232 236 235 237 236 238 238 239 237 237 234 236 239 240 240 241 246 249 252 254 254 255 257 258 260 268 276 278 282 281
285 277 270 262 253 246 243 242 241 240 239 235 234 234 234 230 232 235 237 237 237 239 238 238 236 235 236 236 237 242 247 249 249 250 255 255 258 258 260 262 268 274 276 278 276
292 282 275 267 258 248 242 240 239 239 240 237 235 234 233 232 229 231 236 237 236 237 239 237 237 236 234 237 240 248 251 248 251 255 253 254 253 255 260 263 267 271 275 274 271
295 290 281 272 263 254 245 240 237 236 236 236 234 233 232 233 228 227 229 234 237 237 237 241 241 238 236 239 238 243 244 248 249 251 255 256 257 257 260 264 267 272 273 272 267
300 293 283 274 267 258 249 241 239 236 234 234 234 231 230 233 230 225 227 228 233 237 238 237 239 240 241 238 236 243 241 242 248 250 250 251 254 254 257 264 270 271 271 272 269
300 293 285 276 269 261 253 245 239 236 233 234 232 231 229 230 232 227 226 229 232 235 238 242 242 241 244 240 238 238 240 245 250 253 253 250 250 256 259 262 266 271 272 275 270
298 292 286 279 270 264 257 251 242 237 233 232 231 228 228 229 230 230 226 229 231 232 237 240 239 238 240 240 240 241 243 245 250 252 249 254 250 253 260 263 265 269 274 271 264
298 292 287 279 271 262 257 251 245 240 232 230 231 224 225 226 225 228 229 226 229 229 231 236 236 240 241 242 245 243 245 244 245 251 250 250 250 252 258 260 265 268 268 261 257
298 293 287 278 270 265 259 254 248 241 232 228 227 224 222 221 223 225 228 228 226 229 231 231 231 230 234 236 243 245 245 245 247 249 250 252 257 248 259 261 259 262 259 261 256
298 293 289 280 273 268 262 255 247 239 234 230 225 223 220 220 221 222 226 226 228 227 229 231 230 232 232 231 234 236 240 244 245 247 253 255 252 253 255 261 263 259 259 257 254
299 295 291 282 276 270 261 252 245 238 233 231 226 223 219 219 219 220 223 222 225 230 229 230 230 231 233 234 237 239 242 244 249 254 257 250 250 258 251 240 250 253 256 257 255
301 297 293 284 277 271 263 256 251 245 236 230 227 223 220 219 219 220 220 219 222 225 231 231 231 230 232 233 234 235 238 244 243 245 246 248 253 252 250 248 243 248 251 254 257
304 299 294 286 280 274 269 262 253 247 238 231 227 222 218 216 217 218 220 218 217 224 225 228 232 232 231 231 232 235 237 238 239 242 246 246 249 250 243 241 242 245 250 250 255
306 301 297 290 283 279 275 266 255 248 240 230 227 224 219 217 217 218 218 219 218 219 225 228 230 232 231 231 231 234 236 238 240 243 246 247 248 243 237 238 237 240 244 245 253
307 301 301 292 286 283 278 267 258 249 242 233 227 224 219 217 218 220 220 220 218 219 222 227 229 230 231 232 231 232 235 240 241 243 245 245 240 238 238 240 240 240 243 245 249
312 302 301 294 289 283 279 269 260 252 244 237 228 225 222 218 216 215 218 220 220 220 221 223 227 227 229 232 235 231 233 236 239 240 241 240 237 240 237 237 237 238 243 246 247
312 308 301 293 291 284 279 273 264 257 247 238 231 224 223 220 216 217 218 219 220 220 220 221 224 226 227 229 231 233 234 237 238 241 242 241 236 240 239 238 239 241 244 244 247
311 309 303 297 289 284 280 278 274 267 256 241 234 227 221 221 218 218 219 219 219 220 220 220 221 225 227 229 231 235 239 239 240 239 239 242 240 241 240 238 238 239 240 245 246
311 311 303 295 291 286 286 278 278 273 262 249 235 229 224 220 219 218 220 220 219 221 220 221 221 221 224 227 230 233 235 240 242 244 244 242 240 245 249 245 243 239 238 240 247
313 309 300 294 294 297 288 272 268 269 262 250 236 231 229 224 221 221 221 222 221 221 222 223 222 222 222 225 229 232 232 234 238 238 241 239 238 240 246 249 246 243 241 240 243
Height
10608 10609 10615 10619 10626 10633 10641 10648 10654 10662 10670 10677 10686 10694 10699 10706 10714 10723 10739 10740 10751 10753 10760 10766 10769 10773 10780 10785 10789 10795 10796 10799 10803 10808 10807 10804 10806 10807 10807 10807 10806 10807 10809 10810 10810
10586 10586 10588 10592 10598 10602 10612 10622 10630 10638 10647 10655 10663 10671 10677 10686 10695 10713 10718 10722 10733 10739 10745 10751 10755 10759 10768 10773 10779 10785 10786 10788 10794 10799 10800 10795 10797 10799 10801 10799 10799 10800 10802 10803 10805
10566 10564 10564 10564 10569 10574 10581 10592 10601 10612 10622 10631 10639 10648 10657 10665 10677 10705 10692 10701 10715 10724 10729 10735 10743 10750 10756 10761 10766 10770 10776 10776 10785 10787 10789 10788 10788 10791 10792 10793 10793 10791 10792 10795 10798
10539 10538 10538 10537 10540 10543 10551 10561 10572 10583 10596 10606 10616 10625 10633 10641 10660 10671 10680 10682 10696 10707 10710 10722 10729 10738 10743 10749 10750 10757 10759 10765 10770 10775 10777 10779 10781 10781 10784 10785 10787 10787 10785 10785 10791
10512 10510 10509 10509 10511 10514 10520 10530 10541 10552 10566 10578 10590 10600 10607 10617 10655 10658 10658 10660 10672 10685 10697 10705 10714 10721 10730 10733 10737 10749 10744 10749 10757 10766 10767 10770 10774 10772 10776 10776 10780 10779 10778 10778 10781
10483 10482 10480 10480 10482 10485 10490 10500 10510 10523 10535 10549 10561 10571 10579 10602 10618 10627 10639 10643 10651 10667 10676 10686 10701 10704 10711 10718 10730 10730 10729 10738 10745 10753 10756 10760 10763 10767 10764 10767 10772 10772 10772 10770 10770
10455 10452 10450 10450 10452 10456 10462 10469 10480 10491 10504 10518 10530 10538 10553 10597 10592 10607 10628 10633 10635 10649 10661 10669 10675 10686 10702 10705 10714 10715 10721 10726 10736 10740 10743 10746 10756 10761 10748 10760 10762 10765 10765 10765 10763
10428 10423 10420 10420 10422 10426 10431 10438 10448 10462 10476 10490 10496 10505 10533 10568 10566 10589 10597 10610 10611 10625 10637 10645 10654 10670 10676 10689 10690 10701 10706 10718 10725 10725 10729 10733 10747 10744 10737 10749 10753 10757 10759 10759 10758
10403 10396 10392 10391 10392 10395 10399 10406 10417 10430 10444 10458 10471 10480 10513 10541 10550 10568 10574 10587 10595 10599 10611 10617 10634 10652 10651 10669 10677 10691 10708 10710 10703 10710 10711 10722 10733 10725 10724 10738 10745 10748 10752 10752 10751
10379 10372 10367 10362 10363 10365 10369 10377 10387 10402 10413 10432 10450 10471 10499 10514 10526 10544 10553 10562 10575 10578 10579 10600 10614 10622 10635 10652 10688 10690 10689 10688 10693 10692 10693 10705 10718 10710 10712 10722 10735 10736 10743 10744 10741
10355 10348 10343 10336 10335 10338 10343 10350 10361 10373 10387 10404 10423 10450 10465 10469 10494 10522 10524 10536 10543 10548 10567 10593 10579 10596 10645 10659 10665 10662 10660 10669 10676 10676 10675 10695 10697 10699 10699 10711 10720 10726 10730 10734 10735
10333 10326 10320 10314 10312 10315 10318 10325 10335 10349 10367 10379 10398 10426 10436 10438 10465 10495 10508 10513 10518 10530 10557 10535 10548 10611 10629 10624 10637 10639 10638 10652 10656 10659 10662 10672 10681 10682 10688 10703 10705 10712 10717 10723 10725
10310 10304 10299 10295 10291 10295 10297 10304 10314 10323 10343 10355 10370 10402 10410 10418 10444 10471 10485 10491 10503 10513 10523 10524 10577 10599 10576 10608 10609 10614 10626 10643 10639 10636 10643 10650 10662 10670 10681 10690 10693 10698 10707 10710 10712
10289 10284 10281 10277 10275 10275 10279 10285 10292 10300 10326 10332 10351 10377 10393 10405 10431 10447 10460 10469 10481 10497 10512 10508 10557 10546 10560 10574 10580 10599 10628 10616 10618 10610 10629 10621 10653 10653 10675 10678 10683 10686 10694 10696 10695
10270 10266 10264 10261 10257 10257 10259 10265 10271 10283 10307 10307 10320 10345 10358 10389 10413 10412 10425 10440 10457 10479 10481 10498 10523 10533 10543 10565 10574 10595 10584 10596 10596 10587 10601 10598 10634 10671 10657 10661 10677 10677 10674 10679 10679
10254 10250 10248 10244 10240 10241 10245 10248 10254 10266 10275 10280 10295 10314 10335 10356 10376 10381 10395 10415 10437 10448 10458 10473 10498 10501 10524 10541 10545 10568 10557 10565 10572 10569 10565 10619 10616 10655 10643 10661 10657 10657 10661 10662 10663
10238 10235 10234 10225 10226 10226 10227 10230 10235 10243 10246 10258 10274 10285 10305 10328 10346 10357 10372 10388 10404 10420 10434 10451 10473 10490 10500 10515 10522 10529 10534 10538 10541 10542 10570 10620 10571 10636 10641 10639 10641 10642 10642 10646 10646
10222 10220 10220 10212 10211 10210 10210 10212 10215 10216 10226 10240 10250 10262 10287 10302 10316 10327 10344 10371 10383 10396 10413 10423 10444 10462 10478 10496 10515 10526 10520 10519 10536 10548 10582 10571 10553 10637 10614 10620 10619 10620 10625 10628 10634
10209 10208 10205 10199 10196 10195 10194 10195 10198 10204 10214 10220 10228 10244 10264 10282 10297 10307 10320 10347 10361 10377 10384 10401 10416 10437 10457 10480 10485 10499 10486 10532 10511 10522 10533 10547 10568 10610 10602 10607 10611 10611 10609 10612 10614
10196 10195 10191 10186 10182 10181 10180 10183 10184 10188 10195 10203 10210 10223 10236 10247 10258 10276 10298 10318 10335 10334 10349 10375 10392 10414 10437 10453 10460 10467 10493 10481 10485 10495 10506 10544 10564 10589 10579 10588 10592 10598 10600 10593 10599
10185 10182 10178 10174 10170 10170 10169 10169 10171 10174 10179 10185 10195 10207 10218 10228 10237 10252 10269 10292 10307 10325 10339 10356 10368 10391 10409 10424 10447 10453 10462 10463 10474 10478 10500 10533 10547 10568 10562 10571 10576 10581 10581 10580 10585
10174 10171 10167 10162 10160 10158 10157 10155 10159 10160 10164 10171 10179 10189 10200 10209 10225 10251 10259 10272 10288 10306 10325 10335 10350 10375 10392 10406 10425 10434 10444 10446 10452 10465 10490 10507 10524 10535 10549 10555 10563 10567 10562 10568 10574
10165 10157 10158 10152 10149 10147 10143 10142 10145 10148 10152 10158 10166 10174 10186 10195 10210 10222 10233 10250 10269 10290 10308 10317 10334 10362 10375 10384 10398 10410 10414 10417 10429 10444 10457 10475 10524 10521 10531 10535 10542 10549 10551 10559 10558
10156 10148 10143 10142 10140 10135 10132 10129 10135 10138 10141 10146 10152 10158 10166 10177 10192 10201 10208 10224 10244 10265 10282 10297 10313 10336 10348 10354 10365 10383 10392 10400 10412 10421 10437 10455 10506 10497 10510 10520 10528 10540 10538 10541 10541
10145 10139 10133 10129 10130 10124 10123 10120 10123 10126 10130 10135 10138 10142 10148 10161 10173 10179 10187 10207 10220 10239 10258 10279 10295 10313 10328 10339 10352 10365 10376 10384 10397 10408 10420 10463 10477 10471 10482 10488 10509 10520 10525 10525 10525
10135 10130 10121 10117 10116 10116 10117 10113 10110 10116 10118 10120 10125 10126 10132 10142 10152 10159 10167 10183 10200 10217 10240 10255 10272 10293 10308 10319 10332 10344 10356 10368 10383 10392 10417 10439 10451 10458 10465 10483 10494 10499 10501 10509 10513
10125 10119 10112 10103 10105 10108 10107 10103 10100 10101 10104 10105 10108 10112 10120 10125 10132 10140 10152 10168 10185 10202 10217 10233 10253 10269 10289 10297 10301 10323 10354 10351 10359 10372 10397 10417 10436 10438 10444 10458 10471 10483 10493 10501 10507